Regional Weather Roundup
Issued by NWS

Home | Current Version | Previous Version | Graphics & Text | Print | Product List | Glossary On
Versions: 1 2 3 4 5 6 7 8 9 10 11 12 13 14 15 16 17 18 19 20 21 22 23 24 25 26 27 28 29 30 31 32 33 34 35 36 37 38 39 40 41 42 43 44 45 46 47 48 49 50
000
ASUS43 KLOT 231412
RWRIL

ILLINOIS REGIONAL WEATHER ROUNDUP
NATIONAL WEATHER SERVICE CHICAGO/ROMEOVILLE IL
800 AM CST THU FEB 23 2017

NOTE: "FAIR" INDICATES FEW OR NO CLOUDS BELOW 12,000 FEET WITH NO
SIGNIFICANT WEATHER AND/OR OBSTRUCTIONS TO VISIBILITY.

* THESE STATIONS ARE NOT UNDER NWS QUALITY CONTROL. THEY ALSO MAY NOT
  REPORT WEATHER SUCH AS PRECIPITATION OR FOG.

ILZ001-002-007-009-015-016-024-231500-
NORTHWEST ILLINOIS

CITY           SKY/WX    TMP DP  RH WIND       PRES   REMARKS
MOLINE         SUNNY     43  39  86 N8        29.77R
STERLING*      SUNNY     45  41  86 N7        29.77R
SAVANNA*       MOSUNNY   44  39  84 N10       29.76F
$$

ILZ003-004-008-010-011-017-018-231500-
NORTH CENTRAL ILLINOIS

CITY           SKY/WX    TMP DP  RH WIND       PRES   REMARKS
ROCKFORD       MOSUNNY   45  40  82 NW5       29.79R
FREEPORT*      SUNNY     41  39  93 N7        29.80R
ROCHELLE*      SUNNY     43  42  96 N12       29.76S FOG
DE KALB*       SUNNY     44  42  93 N12       29.75F
PERU*          CLOUDY    41  40  96 CALM      29.79R FOG
$$

ILZ005-006-012>014-019>023-231500-
NORTHEAST ILLINOIS

CITY           SKY/WX    TMP DP  RH WIND       PRES   REMARKS
CHICAGO-OHARE  MOSUNNY   50  42  74 N8        29.75R
CHICAGO-MIDWAY MOSUNNY   51  42  71 N8        29.77R
AURORA         SUNNY     47  42  83 N6        29.76R
LANSING*       MOSUNNY   46  46 100 N5        29.78R
JOLIET*        SUNNY     47  46  95 CALM      29.77S
WAUKEGAN       PTSUNNY   47  40  76 VRB6      29.75R
DUPAGE AIRPORT SUNNY     47  43  86 CALM      29.75R
KANKAKEE*      MOSUNNY   45  44  97 CALM      29.78R
WHEELING       SUNNY     48  41  76 N9        29.77R
MORRIS*        SUNNY     45  43  95 CALM      29.77R
ROMEOVILLE*    MOSUNNY   47  46  97 NE3       29.77R
NORTHERLY ISL    N/A     50  41  71 NW8         N/A
$$

LMZ740>746-231500-
SOUTHERN LAKE MICHIGAN

STATION/POSITION SKY/WX   TEMP    WIND        PRES    VSBY  WAVE
                          AIR SEA DIR/SP/G                  HT/PER
                          (F)     (DEG/KT/KT) (MB)    (MI)  (FT/S)
HARRISON CRIB              48     350/  8/  8   N/A
BURNHAM HARBOR             49      30/  6/ 11   N/A
CALUMET HARBOR             49     340/  4/  7 1007.9R
BURNS HARBOR               44     300/  5/  7 1008.5R
MICHIGAN CITY              42     220/  5/  6   N/A
$$

ILZ025>027-034>036-040-047-049-050-058-095>099-231500-
WEST-CENTRAL ILLINOIS

CITY           SKY/WX    TMP DP  RH WIND       PRES   REMARKS
QUINCY         CLOUDY    46  43  89 N12       29.77R
GALESBURG*     CLOUDY    43  42  95 N8        29.79R
MACOMB*        CLOUDY    43  42  98 N13       29.80R FOG
JACKSONVILLE*  MOSUNNY   48  48  99 NE9       29.73R
PITTSFIELD*    CLOUDY    49  46  92 N6        29.75R
$$

ILZ028>032-037-038-041>044-048-051>054-059>061-231500-
CENTRAL ILLINOIS

CITY           SKY/WX    TMP DP  RH WIND       PRES   REMARKS
PONTIAC        MOSUNNY   46  46  98 CALM      29.79R FOG
BLOOMINGTON    MOSUNNY   48  46  93 N10       29.77R
DECATUR        FOG       46  45  96 E3        29.75R VSB 1/4
PEORIA         SUNNY     46  43  89 N9        29.77R
LACON*         MOSUNNY   44  44  97 CALM      29.79R
LINCOLN*       CLOUDY    45  45 100 CALM      29.75R FOG
SPRINGFIELD    PTSUNNY   50  49  96 NE6       29.75R FOG
TAYLORVILLE    FOG       49  49 100 CALM      29.74S VSB<1/4
$$

ILZ033-039-045-046-055>057-062-063-231500-
EAST-CENTRAL ILLINOIS

CITY           SKY/WX    TMP DP  RH WIND       PRES   REMARKS
CHAMPAIGN      FOG       49  48  97 CALM      29.75F VSB 1/8
RANTOUL*       FOG       48  48  99 CALM      29.76S VSB 1/2
MATTOON        FOG       53  53 100 S6        29.76R VSB 3/4
PARIS*         SUNNY     56  56 100 SW8       29.78R FOG
$$

ILZ079-100>102-231500-
SOUTHWEST ILLINOIS

CITY           SKY/WX    TMP DP  RH WIND       PRES   REMARKS
ALTON          FOG       50  50 100 E6        29.73R VSB 1/4
BELLEVILLE     FOG       51  51 100 CALM      29.73R VSB 0
CAHOKIA*       MOSUNNY   54  51  90 SE3       29.73R
SPARTA*        MOSUNNY   56  54  94 S6        29.75R
$$

ILZ064>066-069>071-074>076-080>082-084>086-088>090-092>094-231500-
SOUTH-CENTRAL ILLINOIS

CITY           SKY/WX    TMP DP  RH WIND       PRES   REMARKS
CARBONDALE     PTSUNNY   57  57 100 S12       29.77R
CAIRO*         MOSUNNY   56  56  98 S6        29.80R
EFFINGHAM*     FOG       54  54 100 SE5       29.78R VSB 1/4
MARION         PTSUNNY   57  57 100 S5        29.78R FOG
MT. VERNON     CLOUDY    52  51  97 CALM      29.77R FOG
CENTRALIA*     CLOUDY    56  56 100 SE7       29.75R
SALEM*         CLOUDY    56  54  91 CALM      29.76R
METROPOLIS*    SUNNY     56  56  98 CALM      29.81S
$$

ILZ067-068-072-073-078-083-087-091-231500-
SOUTHEAST ILLINOIS

CITY           SKY/WX    TMP DP  RH WIND       PRES   REMARKS
LAWRENCEVILLE  SUNNY     57  56  96 S13       29.78S
FLORA*         SUNNY     57  56  99 S9        29.77R FOG
FAIRFIELD*     PTSUNNY   56  56 100 CALM      29.78R
HARRISBURG*    SUNNY     55  55 100 SE5       29.79R FOG
ROBINSON*      SUNNY     56  55  94 S12       29.78S
CARMI*         MOSUNNY   55  55 100 S8        29.79R
$$

ABBREVIATIONS USED IN REMARKS
   TC - TEMPERATURE IN CELSIUS
  WCI - WIND CHILL INDEX
   HX - HEAT INDEX
  VSB - VISIBILITY
$$




USA.gov is the U.S. government's official web portal to all federal, state and local government web resources and services.